sat.trackr.live / text

‹ back to catalog

RISING 2

NORAD 39769 · 2014-029D

PAYLOAD ACTIVE UNKNOWN

§ Identity

Operator
Country
JPN
Launch date
2014-05-24
Launch site
TANSC
Launch vehicle
Mass (kg)
RCS (m²)
0.30

External: N2YO · Heavens-Above · Gunter

§ Orbital elements

Epoch: 2026-09-20T03:16:15.056832Z

Period
96.04 min
Inclination
97.6439°
Eccentricity
0.0002909
Mean motion
14.99333240 rev/d
Perigee alt
566.9 km
Apogee alt
571.0 km
Semi-major
6,947.1 km
B*
3.1644e-4
RAAN
329.8811°
Arg perigee
35.8790°
Mean anomaly
324.2628°
Rev number
66,777

§ Raw data

RISING 21 39769U 14029D   26263.13628538  .00003810  00000+0  31644-3 0  99972 39769  97.6439 329.8811 0002909  35.8790 324.2628 14.99333240667776

JSON: /api/v1/satellites/39769 · /tle

For live sub-satellite position, see the globe view (requires WebGL).

§ Visibility from observer

Set your observer location to see the next 7 days of passes ≥ 10°. The values pass through the URL so the page stays shareable.

No JS? Fill the form by hand. The geolocation button needs JavaScript.

§ Radio — SatNOGS DB

ModeDescriptionDownlinkUplink
FM S-band telemetry 2.285 GHz

1 transmitter · refreshed weekly from db.satnogs.org